| time (UTC) | temp F | wind direction | speed MPH | gust MPH | rain 1hr in | rain 24hr in | rain mn in | humidity % | barometer mb |
| 20260903220213 | 71 | 217 | 5.0 | 9.0 | 0.00 | 0.00 | 0.00 | 36 | 1014.3 |
| 20260903215707 | 70 | 204 | 12.0 | 13.0 | 0.00 | 0.00 | 0.00 | 36 | 1014.5 |
| 20260903215202 | 71 | 205 | 9.0 | 14.0 | 0.00 | 0.00 | 0.00 | 37 | 1014.4 |
| 20260903214700 | 70 | 225 | 6.0 | 6.0 | 0.00 | 0.00 | 0.00 | 36 | 1014.5 |
| 20260903214156 | 66 | 233 | 2.0 | 7.0 | 0.00 | 0.00 | 0.00 | 38 | 1014.5 |
| 20260903213650 | 66 | 261 | 4.0 | 5.0 | 0.00 | 0.00 | 0.00 | 40 | 1014.7 |
| 20260903213146 | 66 | 237 | 5.0 | 5.0 | 0.00 | 0.00 | 0.00 | 40 | 1014.7 |
| 20260903212642 | 65 | 221 | 8.0 | 8.0 | 0.00 | 0.00 | 0.00 | 39 | 1014.9 |
| 20260903212137 | 65 | 211 | 5.0 | 7.0 | 0.00 | 0.00 | 0.00 | 40 | 1014.8 |
| 20260903211631 | 65 | 203 | 2.0 | 8.0 | 0.00 | 0.00 | 0.00 | 41 | 1015.0 |
| 20260903211129 | 65 | 209 | 5.0 | 10.0 | 0.00 | 0.00 | 0.00 | 41 | 1014.9 |
| 20260903210623 | 66 | 171 | 4.0 | 11.0 | 0.00 | 0.00 | 0.00 | 38 | 1014.8 |
| 20260903210120 | 69 | 209 | 5.0 | 15.0 | 0.00 | 0.00 | 0.00 | 35 | 1014.9 |
| 20260903205618 | 71 | 155 | 6.0 | 14.0 | 0.00 | 0.00 | 0.00 | 35 | 1014.9 |
| 20260903205113 | 70 | 175 | 5.0 | 10.0 | 0.00 | 0.00 | 0.00 | 39 | 1014.9 |
| 20260903204608 | 69 | 213 | 2.0 | 10.0 | 0.00 | 0.00 | 0.00 | 37 | 1015.0 |
| 20260903204104 | 67 | 180 | 3.0 | 6.0 | 0.00 | 0.00 | 0.00 | 39 | 1015.0 |
| 20260903203559 | 64 | 121 | 3.0 | 5.0 | 0.00 | 0.00 | 0.00 | 40 | 1015.0 |
| 20260903203054 | 65 | 157 | 4.0 | 5.0 | 0.00 | 0.00 | 0.00 | 41 | 1015.1 |
| 20260903202549 | 65 | 163 | 6.0 | 8.0 | 0.00 | 0.00 | 0.00 | 43 | 1015.3 |
| 20260903202039 | 64 | 209 | 3.0 | 11.0 | 0.00 | 0.00 | 0.00 | 42 | 1015.1 |
| 20260903201534 | 65 | 172 | 5.0 | 11.0 | 0.00 | 0.00 | 0.00 | 40 | 1015.3 |
| 20260903201033 | 66 | 213 | 5.0 | 11.0 | 0.00 | 0.00 | 0.00 | 38 | 1015.5 |
| 20260903200527 | 68 | 216 | 5.0 | 10.0 | 0.00 | 0.00 | 0.00 | 37 | 1015.3 |
| 20260903200023 | 67 | 210 | 3.0 | 11.0 | 0.00 | 0.00 | 0.00 | 39 | 1015.4 |
| 20260903195518 | 66 | 212 | 5.0 | 12.0 | 0.00 | 0.00 | 0.00 | 41 | 1015.5 |
| 20260903195014 | 69 | 206 | 8.0 | 12.0 | 0.00 | 0.00 | 0.00 | 40 | 1015.5 |
| 20260903194504 | 69 | 180 | 5.0 | 13.0 | 0.00 | 0.00 | 0.00 | 37 | 1015.5 |
| 20260903193958 | 66 | 214 | 6.0 | 14.0 | 0.00 | 0.00 | 0.00 | 41 | 1015.6 |
| 20260903193455 | 66 | 128 | 5.0 | 6.0 | 0.00 | 0.00 | 0.00 | 43 | 1015.5 |
| 20260903192949 | 65 | 212 | 3.0 | 5.0 | 0.00 | 0.00 | 0.00 | 41 | 1015.7 |
| 20260903192447 | 65 | 253 | 3.0 | 10.0 | 0.00 | 0.00 | 0.00 | 42 | 1015.7 |
| 20260903191941 | 64 | 274 | 3.0 | 7.0 | 0.00 | 0.00 | 0.00 | 42 | 1015.9 |
| 20260903191437 | 64 | 232 | 4.0 | 13.0 | 0.00 | 0.00 | 0.00 | 42 | 1015.9 |
| 20260903190936 | 65 | 150 | 4.0 | 14.0 | 0.00 | 0.00 | 0.00 | 42 | 1015.7 |
| 20260903190431 | 64 | 209 | 7.0 | 15.0 | 0.00 | 0.00 | 0.00 | 43 | 1015.7 |
| 20260903185930 | 65 | 214 | 5.0 | 12.0 | 0.00 | 0.00 | 0.00 | 42 | 1015.7 |
| 20260903185426 | 66 | 208 | 9.0 | 16.0 | 0.00 | 0.00 | 0.00 | 39 | 1015.9 |
| 20260903184921 | 64 | 177 | 7.0 | 18.0 | 0.00 | 0.00 | 0.00 | 41 | 1015.7 |
| 20260903184418 | 66 | 221 | 14.0 | 16.0 | 0.00 | 0.00 | 0.00 | 41 | 1015.7 |
| 20260903183918 | 67 | 173 | 5.0 | 12.0 | 0.00 | 0.00 | 0.00 | 42 | 1016.0 |
| 20260903183412 | 65 | 230 | 7.0 | 11.0 | 0.00 | 0.00 | 0.00 | 41 | 1015.7 |
| 20260903182912 | 66 | 220 | 11.0 | 14.0 | 0.00 | 0.00 | 0.00 | 42 | 1015.7 |
| 20260903182411 | 66 | 159 | 6.0 | 11.0 | 0.00 | 0.00 | 0.00 | 44 | 1015.9 |
| 20260903181907 | 64 | 199 | 7.0 | 10.0 | 0.00 | 0.00 | 0.00 | 42 | 1016.0 |
| 20260903181401 | 65 | 226 | 8.0 | 13.0 | 0.00 | 0.00 | 0.00 | 42 | 1016.0 |
| 20260903180900 | 65 | 160 | 8.0 | 11.0 | 0.00 | 0.00 | 0.00 | 42 | 1015.9 |
| 20260903180355 | 64 | 227 | 8.0 | 9.0 | 0.00 | 0.00 | 0.00 | 43 | 1016.0 |
| 20260903175854 | 64 | 146 | 5.0 | 16.0 | 0.00 | 0.00 | 0.00 | 43 | 1016.1 |
| 20260903175349 | 64 | 225 | 13.0 | 15.0 | 0.00 | 0.00 | 0.00 | 42 | 1016.0 |
| 20260903174843 | 63 | 207 | 7.0 | 11.0 | 0.00 | 0.00 | 0.00 | 41 | 1016.1 |
| 20260903174338 | 63 | 191 | 6.0 | 15.0 | 0.00 | 0.00 | 0.00 | 42 | 1016.2 |
| 20260903173833 | 62 | 181 | 4.0 | 13.0 | 0.00 | 0.00 | 0.00 | 42 | 1016.2 |
| 20260903173328 | 62 | 174 | 6.0 | 12.0 | 0.00 | 0.00 | 0.00 | 44 | 1016.0 |
| 20260903172824 | 63 | 168 | 4.0 | 13.0 | 0.00 | 0.00 | 0.00 | 44 | 1016.1 |
| 20260903172318 | 63 | 236 | 2.0 | 10.0 | 0.00 | 0.00 | 0.00 | 42 | 1016.0 |
| 20260903171814 | 62 | 176 | 3.0 | 11.0 | 0.00 | 0.00 | 0.00 | 42 | 1016.2 |
| 20260903171310 | 61 | 168 | 3.0 | 15.0 | 0.00 | 0.00 | 0.00 | 44 | 1016.5 |
| 20260903170809 | 61 | 206 | 5.0 | 14.0 | 0.00 | 0.00 | 0.00 | 45 | 1016.2 |
| 20260903170303 | 61 | 211 | 3.0 | 9.0 | 0.00 | 0.00 | 0.00 | 43 | 1016.5 |
| 20260903165802 | 61 | 211 | 7.0 | 8.0 | 0.00 | 0.00 | 0.00 | 45 | 1016.6 |
| 20260903165257 | 62 | 164 | 11.0 | 13.0 | 0.00 | 0.00 | 0.00 | 43 | 1016.5 |
| 20260903164751 | 62 | 188 | 2.0 | 7.0 | 0.00 | 0.00 | 0.00 | 43 | 1016.6 |
| 20260903164247 | 61 | 196 | 5.0 | 12.0 | 0.00 | 0.00 | 0.00 | 43 | 1016.5 |
| 20260903163746 | 61 | 180 | 2.0 | 8.0 | 0.00 | 0.00 | 0.00 | 45 | 1016.5 |
| 20260903163243 | 59 | 207 | 5.0 | 9.0 | 0.00 | 0.00 | 0.00 | 45 | 1016.7 |
| 20260903162738 | 60 | 229 | 5.0 | 8.0 | 0.00 | 0.00 | 0.00 | 45 | 1016.5 |
| 20260903162234 | 60 | 168 | 2.0 | 10.0 | 0.00 | 0.00 | 0.00 | 44 | 1016.6 |
| 20260903161730 | 61 | 180 | 0.0 | 5.0 | 0.00 | 0.00 | 0.00 | 44 | 1016.7 |
| 20260903161226 | 60 | 161 | 6.0 | 7.0 | 0.00 | 0.00 | 0.00 | 45 | 1016.5 |
| 20260903160721 | 61 | 228 | 4.0 | 5.0 | 0.00 | 0.00 | 0.00 | 45 | 1016.5 |
| 20260903160220 | 60 | 74 | 2.0 | 6.0 | 0.00 | 0.00 | 0.00 | 45 | 1016.5 |
| 20260903155719 | 57 | 126 | 6.0 | 6.0 | 0.00 | 0.00 | 0.00 | 48 | 1016.5 |
| 20260903155214 | 58 | 111 | 0.0 | 3.0 | 0.00 | 0.00 | 0.00 | 46 | 1016.5 |
| 20260903154709 | 58 | 122 | 7.0 | 7.0 | 0.00 | 0.00 | 0.00 | 47 | 1016.5 |
| 20260903154206 | 60 | 197 | 2.0 | 5.0 | 0.00 | 0.00 | 0.00 | 47 | 1016.4 |
| 20260903153701 | 58 | 251 | 3.0 | 6.0 | 0.00 | 0.00 | 0.00 | 48 | 1016.4 |
| 20260903153157 | 59 | 109 | 0.0 | 3.0 | 0.00 | 0.00 | 0.00 | 46 | 1016.2 |
| 20260903152653 | 58 | 157 | 3.0 | 4.0 | 0.00 | 0.00 | 0.00 | 47 | 1016.4 |
| 20260903152149 | 57 | 232 | 3.0 | 4.0 | 0.00 | 0.00 | 0.00 | 48 | 1016.2 |
| 20260903151649 | 57 | 150 | 2.0 | 4.0 | 0.00 | 0.00 | 0.00 | 51 | 1016.4 |
| 20260903151148 | 58 | 125 | 3.0 | 5.0 | 0.00 | 0.00 | 0.00 | 51 | 1016.4 |
| 20260903150643 | 56 | 206 | 0.0 | 3.0 | 0.00 | 0.00 | 0.00 | 52 | 1016.2 |
| 20260903150138 | 55 | 203 | 0.0 | 2.0 | 0.00 | 0.00 | 0.00 | 53 | 1016.4 |
| 20260903145638 | 55 | 216 | 2.0 | 3.0 | 0.00 | 0.00 | 0.00 | 54 | 1016.2 |
| 20260903145133 | 54 | 221 | 2.0 | 5.0 | 0.00 | 0.00 | 0.00 | 54 | 1016.1 |
| 20260903144632 | 55 | 140 | 0.0 | 3.0 | 0.00 | 0.00 | 0.00 | 54 | 1016.0 |
| 20260903144128 | 56 | 203 | 3.0 | 5.0 | 0.00 | 0.00 | 0.00 | 52 | 1016.1 |
| 20260903143624 | 56 | 142 | 3.0 | 4.0 | 0.00 | 0.00 | 0.00 | 52 | 1016.0 |
| 20260903143120 | 55 | 188 | 0.0 | 3.0 | 0.00 | 0.00 | 0.00 | 56 | 1016.0 |
| 20260903142615 | 55 | 99 | 0.0 | 2.0 | 0.00 | 0.00 | 0.00 | 58 | 1015.9 |
| 20260903142112 | 55 | 97 | 1.0 | 3.0 | 0.00 | 0.00 | 0.00 | 59 | 1015.7 |
| 20260903141607 | 55 | 45 | 0.0 | 2.0 | 0.00 | 0.00 | 0.00 | 60 | 1015.9 |
| 20260903141102 | 53 | 36 | 2.0 | 2.0 | 0.00 | 0.00 | 0.00 | 65 | 1015.9 |
| 20260903140558 | 50 | 49 | 0.0 | 2.0 | 0.00 | 0.00 | 0.00 | 68 | 1015.9 |
| 20260903140053 | 50 | 4 | 2.0 | 2.0 | 0.00 | 0.00 | 0.00 | 68 | 1015.9 |
| 20260903135549 | 48 | 135 | 2.0 | 2.0 | 0.00 | 0.00 | 0.00 | 72 | 1015.9 |
| 20260903135049 | 48 | 87 | 4.0 | 4.0 | 0.00 | 0.00 | 0.00 | 73 | 1015.6 |
| 20260903134548 | 48 | 106 | 0.0 | 4.0 | 0.00 | 0.00 | 0.00 | 70 | 1015.7 |
| 20260903134044 | 47 | 102 | 3.0 | 4.0 | 0.00 | 0.00 | 0.00 | 71 | 1015.6 |
| 20260903133541 | 47 | 103 | 2.0 | 3.0 | 0.00 | 0.00 | 0.00 | 72 | 1015.6 |
| 20260903133037 | 47 | 125 | 2.0 | 3.0 | 0.00 | 0.00 | 0.00 | 72 | 1015.5 |
| 20260903132531 | 47 | 112 | 3.0 | 3.0 | 0.00 | 0.00 | 0.00 | 72 | 1015.5 |
| 20260903132027 | 47 | 90 | 0.0 | 4.0 | 0.00 | 0.00 | 0.00 | 71 | 1015.4 |
| 20260903131521 | 46 | 87 | 3.0 | 5.0 | 0.00 | 0.00 | 0.00 | 72 | 1015.3 |
| 20260903131020 | 46 | 105 | 2.0 | 4.0 | 0.00 | 0.00 | 0.00 | 72 | 1015.3 |
| 20260903130515 | 46 | 113 | 0.0 | 2.0 | 0.00 | 0.00 | 0.00 | 72 | 1015.4 |
| 20260903130015 | 46 | 139 | 2.0 | 3.0 | 0.00 | 0.00 | 0.00 | 72 | 1015.4 |
| 20260903125513 | 46 | 114 | 1.0 | 2.0 | 0.00 | 0.00 | 0.00 | 71 | 1015.3 |
| 20260903125008 | 46 | 140 | 0.0 | 1.0 | 0.00 | 0.00 | 0.00 | 70 | 1015.1 |
| 20260903124503 | 46 | 6 | 0.0 | 1.0 | 0.00 | 0.00 | 0.00 | 69 | 1015.3 |
| 20260903124002 | 46 | 95 | 0.0 | 3.0 | 0.00 | 0.00 | 0.00 | 72 | 1015.3 |
| 20260903123457 | 46 | 81 | 0.0 | 3.0 | 0.00 | 0.00 | 0.00 | 69 | 1015.1 |
| 20260903122955 | 46 | 82 | 0.0 | 2.0 | 0.00 | 0.00 | 0.00 | 69 | 1015.3 |
| 20260903122450 | 46 | 66 | 0.0 | 1.0 | 0.00 | 0.00 | 0.00 | 68 | 1015.5 |
| 20260903121949 | 46 | 162 | 0.0 | 2.0 | 0.00 | 0.00 | 0.00 | 69 | 1015.1 |
| 20260903121444 | 46 | 103 | 0.0 | 2.0 | 0.00 | 0.00 | 0.00 | 71 | 1015.3 |
| 20260903120940 | 47 | 102 | 3.0 | 4.0 | 0.00 | 0.00 | 0.00 | 69 | 1015.1 |
| 20260903120439 | 47 | 114 | 0.0 | 3.0 | 0.00 | 0.00 | 0.00 | 68 | 1015.4 |
| 20260903115937 | 46 | 90 | 0.0 | 3.0 | 0.00 | 0.00 | 0.00 | 70 | 1015.4 |
| 20260903115432 | 46 | 102 | 4.0 | 4.0 | 0.00 | 0.00 | 0.00 | 72 | 1015.3 |
| 20260903114927 | 47 | 103 | 3.0 | 4.0 | 0.00 | 0.00 | 0.00 | 70 | 1015.3 |
| 20260903114422 | 46 | 101 | 3.0 | 4.0 | 0.00 | 0.00 | 0.00 | 69 | 1015.3 |
| 20260903113918 | 47 | 100 | 3.0 | 5.0 | 0.00 | 0.00 | 0.00 | 71 | 1015.1 |
| 20260903113414 | 48 | 100 | 4.0 | 4.0 | 0.00 | 0.00 | 0.00 | 67 | 1015.0 |
| 20260903112909 | 48 | 66 | 0.0 | 4.0 | 0.00 | 0.00 | 0.00 | 66 | 1015.3 |
| 20260903112405 | 49 | 145 | 1.0 | 3.0 | 0.00 | 0.00 | 0.00 | 58 | 1015.1 |
| 20260903111904 | 48 | 154 | 2.0 | 2.0 | 0.00 | 0.00 | 0.00 | 65 | 1015.0 |
| 20260903111403 | 47 | 105 | 1.0 | 3.0 | 0.00 | 0.00 | 0.00 | 67 | 1014.9 |
| 20260903110900 | 48 | 105 | 2.0 | 3.0 | 0.00 | 0.00 | 0.00 | 65 | 1014.7 |
| 20260903110355 | 48 | 74 | 0.0 | 3.0 | 0.00 | 0.00 | 0.00 | 64 | 1014.7 |
| 20260903105849 | 47 | 30 | 2.0 | 2.0 | 0.00 | 0.00 | 0.00 | 67 | 1014.8 |
| 20260903105344 | 47 | 99 | 0.0 | 2.0 | 0.00 | 0.00 | 0.00 | 68 | 1014.7 |
| 20260903104838 | 48 | 110 | 2.0 | 3.0 | 0.00 | 0.00 | 0.00 | 66 | 1014.5 |
| 20260903104333 | 47 | 99 | 3.0 | 5.0 | 0.00 | 0.00 | 0.00 | 67 | 1014.7 |
| 20260903103830 | 47 | 92 | 5.0 | 6.0 | 0.00 | 0.00 | 0.00 | 68 | 1014.7 |
| 20260903103326 | 47 | 95 | 3.0 | 5.0 | 0.00 | 0.00 | 0.00 | 71 | 1014.8 |
| 20260903102821 | 47 | 98 | 5.0 | 5.0 | 0.00 | 0.00 | 0.00 | 70 | 1014.8 |
| 20260903102316 | 48 | 92 | 4.0 | 5.0 | 0.00 | 0.00 | 0.00 | 67 | 1014.5 |
| 20260903101815 | 47 | 101 | 3.0 | 3.0 | 0.00 | 0.00 | 0.00 | 70 | 1014.9 |
| 20260903101310 | 46 | 86 | 2.0 | 4.0 | 0.00 | 0.00 | 0.00 | 77 | 1014.8 |
| 20260903100806 | 46 | 94 | 3.0 | 4.0 | 0.00 | 0.00 | 0.00 | 78 | 1014.9 |
| 20260903100300 | 46 | 80 | 2.0 | 5.0 | 0.00 | 0.00 | 0.00 | 79 | 1015.0 |
| 20260903095757 | 46 | 132 | 2.0 | 4.0 | 0.00 | 0.00 | 0.00 | 78 | 1015.0 |
| 20260903095252 | 47 | 45 | 3.0 | 3.0 | 0.00 | 0.00 | 0.00 | 75 | 1015.0 |
| 20260903094747 | 48 | 97 | 0.0 | 1.0 | 0.00 | 0.00 | 0.00 | 74 | 1015.0 |
| 20260903094242 | 49 | 213 | 0.0 | 2.0 | 0.00 | 0.00 | 0.00 | 70 | 1014.9 |
| 20260903093737 | 49 | 283 | 1.0 | 4.0 | 0.00 | 0.00 | 0.00 | 70 | 1015.1 |
| 20260903093233 | 49 | 225 | 0.0 | 2.0 | 0.00 | 0.00 | 0.00 | 69 | 1014.9 |
| 20260903092732 | 49 | 195 | 0.0 | 2.0 | 0.00 | 0.00 | 0.00 | 68 | 1014.8 |
| 20260903092227 | 48 | 151 | 3.0 | 6.0 | 0.00 | 0.00 | 0.00 | 69 | 1014.4 |
| 20260903091726 | 49 | 82 | 2.0 | 4.0 | 0.00 | 0.00 | 0.00 | 69 | 1013.8 |
| 20260903091221 | 49 | 94 | 2.0 | 3.0 | 0.00 | 0.00 | 0.00 | 66 | 1014.4 |
| 20260903090716 | 49 | 294 | 0.0 | 1.0 | 0.00 | 0.00 | 0.00 | 66 | 1014.7 |
| 20260903090214 | 50 | 192 | 2.0 | 7.0 | 0.00 | 0.00 | 0.00 | 64 | 1014.5 |
| 20260903085713 | 50 | 147 | 2.0 | 2.0 | 0.00 | 0.00 | 0.00 | 64 | 1014.8 |
| 20260903085209 | 51 | 113 | 2.0 | 3.0 | 0.00 | 0.00 | 0.00 | 61 | 1015.0 |
| 20260903084706 | 50 | 157 | 1.0 | 3.0 | 0.00 | 0.00 | 0.00 | 63 | 1014.7 |
| 20260903084202 | 50 | 75 | 1.0 | 5.0 | 0.00 | 0.00 | 0.00 | 63 | 1014.4 |
| 20260903083657 | 50 | 138 | 3.0 | 7.0 | 0.00 | 0.00 | 0.00 | 64 | 1014.2 |
| 20260903083157 | 50 | 352 | 0.0 | 3.0 | 0.00 | 0.00 | 0.00 | 62 | 1014.4 |
| 20260903082651 | 50 | 99 | 2.0 | 2.0 | 0.00 | 0.00 | 0.00 | 62 | 1014.5 |
| 20260903082147 | 50 | 200 | 0.0 | 1.0 | 0.00 | 0.00 | 0.00 | 62 | 1014.5 |
| 20260903081641 | 50 | 32 | 0.0 | 5.0 | 0.00 | 0.00 | 0.00 | 61 | 1014.3 |
| 20260903081138 | 50 | 130 | 6.0 | 6.0 | 0.00 | 0.00 | 0.00 | 61 | 1014.3 |
| 20260903080634 | 51 | 90 | 0.0 | 3.0 | 0.00 | 0.00 | 0.00 | 58 | 1014.5 |
| 20260903080131 | 51 | 70 | 2.0 | 4.0 | 0.00 | 0.00 | 0.00 | 60 | 1015.0 |
| 20260903075630 | 51 | 187 | 1.0 | 3.0 | 0.00 | 0.00 | 0.00 | 60 | 1015.0 |
| 20260903075125 | 50 | 7 | 2.0 | 4.0 | 0.00 | 0.00 | 0.00 | 62 | 1014.9 |
| 20260903074620 | 50 | 110 | 3.0 | 6.0 | 0.00 | 0.00 | 0.00 | 62 | 1015.0 |
| 20260903074119 | 50 | 354 | 0.0 | 5.0 | 0.00 | 0.00 | 0.00 | 63 | 1014.9 |
| 20260903073615 | 50 | 71 | 1.0 | 4.0 | 0.00 | 0.00 | 0.00 | 64 | 1015.0 |
| 20260903073111 | 50 | 37 | 0.0 | 4.0 | 0.00 | 0.00 | 0.00 | 62 | 1014.9 |
| 20260903072606 | 49 | 104 | 4.0 | 5.0 | 0.00 | 0.00 | 0.00 | 65 | 1015.1 |
| 20260903072102 | 49 | 7 | 1.0 | 3.0 | 0.00 | 0.00 | 0.00 | 65 | 1015.1 |
| 20260903071559 | 49 | 66 | 0.0 | 3.0 | 0.00 | 0.00 | 0.00 | 67 | 1015.3 |
| 20260903071053 | 49 | 145 | 0.0 | 4.0 | 0.00 | 0.00 | 0.00 | 65 | 1015.3 |
| 20260903070548 | 48 | 94 | 5.0 | 8.0 | 0.00 | 0.00 | 0.00 | 68 | 1015.3 |
| 20260903070044 | 48 | 95 | 4.0 | 5.0 | 0.00 | 0.00 | 0.00 | 67 | 1015.3 |
| 20260903065543 | 49 | 81 | 3.0 | 8.0 | 0.00 | 0.00 | 0.00 | 67 | 1015.3 |
| 20260903065042 | 48 | 87 | 3.0 | 6.0 | 0.00 | 0.00 | 0.00 | 68 | 1015.5 |
| 20260903064537 | 47 | 109 | 3.0 | 4.0 | 0.00 | 0.00 | 0.00 | 69 | 1015.3 |
| 20260903064033 | 47 | 90 | 3.0 | 4.0 | 0.00 | 0.00 | 0.00 | 70 | 1015.3 |
| 20260903063528 | 48 | 127 | 2.0 | 3.0 | 0.00 | 0.00 | 0.00 | 67 | 1015.1 |
| 20260903063023 | 47 | 29 | 1.0 | 2.0 | 0.00 | 0.00 | 0.00 | 68 | 1015.3 |
| 20260903062518 | 48 | 94 | 3.0 | 5.0 | 0.00 | 0.00 | 0.00 | 68 | 1015.5 |
| 20260903062014 | 47 | 102 | 3.0 | 4.0 | 0.00 | 0.00 | 0.00 | 71 | 1015.3 |
| 20260903061509 | 48 | 80 | 2.0 | 4.0 | 0.00 | 0.00 | 0.00 | 67 | 1015.5 |
| 20260903061003 | 48 | 95 | 3.0 | 4.0 | 0.00 | 0.00 | 0.00 | 72 | 1015.5 |
| 20260903060458 | 47 | 107 | 4.0 | 5.0 | 0.00 | 0.00 | 0.00 | 73 | 1015.4 |
| 20260903055956 | 48 | 90 | 3.0 | 3.0 | 0.00 | 0.00 | 0.00 | 69 | 1015.4 |
| 20260903055455 | 47 | 102 | 0.0 | 3.0 | 0.00 | 0.00 | 0.00 | 72 | 1015.3 |
| 20260903054954 | 48 | 40 | 0.0 | 2.0 | 0.00 | 0.00 | 0.00 | 72 | 1015.3 |
| 20260903054449 | 48 | 98 | 4.0 | 4.0 | 0.00 | 0.00 | 0.00 | 73 | 1015.3 |
| 20260903053945 | 47 | 23 | 1.0 | 2.0 | 0.00 | 0.00 | 0.00 | 77 | 1015.4 |
| 20260903053444 | 47 | 110 | 3.0 | 4.0 | 0.00 | 0.00 | 0.00 | 77 | 1015.5 |
| 20260903052941 | 49 | 49 | 1.0 | 2.0 | 0.00 | 0.00 | 0.00 | 71 | 1015.4 |
| 20260903052437 | 50 | 90 | 2.0 | 3.0 | 0.00 | 0.00 | 0.00 | 68 | 1015.6 |
| 20260903051932 | 50 | 180 | 1.0 | 3.0 | 0.00 | 0.00 | 0.00 | 68 | 1015.4 |
| 20260903051427 | 51 | 152 | 5.0 | 5.0 | 0.00 | 0.00 | 0.00 | 64 | 1015.5 |
| 20260903050923 | 51 | 180 | 2.0 | 5.0 | 0.00 | 0.00 | 0.00 | 64 | 1015.4 |
| 20260903050421 | 51 | 199 | 4.0 | 7.0 | 0.00 | 0.00 | 0.00 | 63 | 1015.5 |
| 20260903045916 | 50 | 163 | 2.0 | 3.0 | 0.00 | 0.00 | 0.00 | 66 | 1015.3 |
| 20260903045412 | 50 | 103 | 2.0 | 3.0 | 0.00 | 0.00 | 0.00 | 65 | 1015.0 |
| 20260903044909 | 51 | 98 | 1.0 | 2.0 | 0.00 | 0.00 | 0.00 | 62 | 1014.9 |
| 20260903044409 | 50 | 113 | 2.0 | 3.0 | 0.00 | 0.00 | 0.00 | 64 | 1015.0 |
| 20260903043906 | 50 | 94 | 5.0 | 6.0 | 0.00 | 0.00 | 0.00 | 66 | 1014.8 |
| 20260903043401 | 51 | 35 | 0.0 | 4.0 | 0.00 | 0.00 | 0.00 | 65 | 1015.0 |
| 20260903042859 | 53 | 17 | 3.0 | 5.0 | 0.00 | 0.00 | 0.00 | 61 | 1015.1 |
| 20260903042354 | 53 | 18 | 2.0 | 4.0 | 0.00 | 0.00 | 0.00 | 58 | 1015.0 |
| 20260903041851 | 53 | 121 | 0.0 | 3.0 | 0.00 | 0.00 | 0.00 | 60 | 1015.0 |
| 20260903041347 | 53 | 23 | 4.0 | 5.0 | 0.00 | 0.00 | 0.00 | 59 | 1015.0 |
| 20260903040842 | 52 | 355 | 0.0 | 5.0 | 0.00 | 0.00 | 0.00 | 62 | 1015.6 |
| 20260903040341 | 52 | 157 | 1.0 | 6.0 | 0.00 | 0.00 | 0.00 | 64 | 1015.3 |
| 20260903035838 | 52 | 90 | 1.0 | 5.0 | 0.00 | 0.00 | 0.00 | 63 | 1015.5 |
| 20260903035332 | 51 | 350 | 2.0 | 5.0 | 0.00 | 0.00 | 0.00 | 65 | 1015.3 |
| 20260903034828 | 52 | 90 | 2.0 | 4.0 | 0.00 | 0.00 | 0.00 | 65 | 1015.3 |
| 20260903034322 | 52 | 124 | 2.0 | 4.0 | 0.00 | 0.00 | 0.00 | 61 | 1015.5 |
| 20260903033818 | 52 | 107 | 4.0 | 5.0 | 0.00 | 0.00 | 0.00 | 60 | 1015.5 |
| 20260903033313 | 52 | 96 | 5.0 | 7.0 | 0.00 | 0.00 | 0.00 | 65 | 1015.5 |
| 20260903032807 | 51 | 165 | 0.0 | 3.0 | 0.00 | 0.00 | 0.00 | 66 | 1015.4 |
| 20260903032305 | 52 | 32 | 2.0 | 4.0 | 0.00 | 0.00 | 0.00 | 66 | 1015.9 |
| 20260903031758 | 51 | 77 | 0.0 | 7.0 | 0.00 | 0.00 | 0.00 | 68 | 1015.9 |
| 20260903031257 | 51 | 99 | 0.0 | 4.0 | 0.00 | 0.00 | 0.00 | 69 | 1015.6 |
| 20260903030754 | 51 | 66 | 0.0 | 4.0 | 0.00 | 0.00 | 0.00 | 68 | 1015.9 |
| 20260903030249 | 51 | 97 | 3.0 | 6.0 | 0.00 | 0.00 | 0.00 | 67 | 1015.7 |
| 20260903025744 | 50 | 100 | 4.0 | 5.0 | 0.00 | 0.00 | 0.00 | 70 | 1015.7 |
| 20260903025240 | 51 | 94 | 2.0 | 5.0 | 0.00 | 0.00 | 0.00 | 69 | 1015.5 |
| 20260903024735 | 51 | 105 | 3.0 | 4.0 | 0.00 | 0.00 | 0.00 | 70 | 1015.4 |
| 20260903024234 | 51 | 93 | 4.0 | 4.0 | 0.00 | 0.00 | 0.00 | 69 | 1015.6 |
| 20260903023730 | 52 | 90 | 4.0 | 8.0 | 0.00 | 0.00 | 0.00 | 66 | 1015.5 |
| 20260903023225 | 52 | 99 | 4.0 | 5.0 | 0.00 | 0.00 | 0.00 | 67 | 1015.6 |
| 20260903022725 | 51 | 71 | 1.0 | 7.0 | 0.00 | 0.00 | 0.00 | 69 | 1015.6 |
| 20260903022224 | 52 | 90 | 3.0 | 3.0 | 0.00 | 0.00 | 0.00 | 68 | 1015.4 |
| 20260903021718 | 52 | 105 | 1.0 | 3.0 | 0.00 | 0.00 | 0.00 | 67 | 1015.5 |
| 20260903021213 | 53 | 96 | 3.0 | 5.0 | 0.00 | 0.00 | 0.00 | 66 | 1015.6 |
| 20260903020708 | 53 | 85 | 0.0 | 3.0 | 0.00 | 0.00 | 0.00 | 66 | 1015.5 |
| 20260903020203 | 52 | 84 | 2.0 | 4.0 | 0.00 | 0.00 | 0.00 | 67 | 1015.4 |
| 20260903015658 | 51 | 78 | 4.0 | 5.0 | 0.00 | 0.00 | 0.00 | 74 | 1015.5 |
| 20260903015154 | 53 | 81 | 3.0 | 4.0 | 0.00 | 0.00 | 0.00 | 67 | 1015.6 |
| 20260903014654 | 53 | 82 | 1.0 | 2.0 | 0.00 | 0.00 | 0.00 | 66 | 1015.5 |
| 20260903014148 | 53 | 90 | 2.0 | 3.0 | 0.00 | 0.00 | 0.00 | 65 | 1015.5 |
| 20260903013642 | 55 | 94 | 3.0 | 3.0 | 0.00 | 0.00 | 0.00 | 63 | 1015.4 |
| 20260903013137 | 56 | 32 | 0.0 | 3.0 | 0.00 | 0.00 | 0.00 | 59 | 1015.6 |
| 20260903012636 | 57 | 66 | 1.0 | 2.0 | 0.00 | 0.00 | 0.00 | 53 | 1015.5 |
| 20260903012135 | 59 | 157 | 0.0 | 0.0 | 0.00 | 0.00 | 0.00 | 51 | 1015.5 |
| 20260903011634 | 59 | 334 | 0.0 | 0.0 | 0.00 | 0.00 | 0.00 | 50 | 1015.5 |
| 20260903011129 | 60 | 245 | 2.0 | 4.0 | 0.00 | 0.00 | 0.00 | 48 | 1015.5 |
| 20260903010625 | 61 | 278 | 1.0 | 2.0 | 0.00 | 0.00 | 0.00 | 49 | 1015.4 |
| 20260903010123 | 63 | 303 | 0.0 | 4.0 | 0.00 | 0.00 | 0.00 | 47 | 1015.4 |
| 20260903005618 | 63 | 236 | 2.0 | 3.0 | 0.00 | 0.00 | 0.00 | 46 | 1015.3 |
| 20260903005114 | 63 | 227 | 3.0 | 3.0 | 0.00 | 0.00 | 0.00 | 44 | 1015.3 |
| 20260903004614 | 64 | 247 | 5.0 | 7.0 | 0.00 | 0.00 | 0.00 | 41 | 1015.4 |
| 20260903004108 | 66 | 295 | 2.0 | 6.0 | 0.00 | 0.00 | 0.00 | 41 | 1015.3 |
| 20260903003604 | 67 | 277 | 4.0 | 4.0 | 0.00 | 0.00 | 0.00 | 39 | 1015.1 |
| 20260903003059 | 66 | 275 | 2.0 | 4.0 | 0.00 | 0.00 | 0.00 | 41 | 1015.4 |
| 20260903002554 | 65 | 348 | 1.0 | 2.0 | 0.00 | 0.00 | 0.00 | 47 | 1015.4 |
| 20260903002049 | 62 | 308 | 2.0 | 2.0 | 0.00 | 0.00 | 0.00 | 54 | 1015.3 |
| 20260903001548 | 62 | 90 | 0.0 | 3.0 | 0.00 | 0.00 | 0.00 | 58 | 1015.3 |
| 20260903001043 | 62 | 86 | 3.0 | 3.0 | 0.00 | 0.00 | 0.00 | 54 | 1015.1 |
| 20260903000539 | 63 | 105 | 1.0 | 3.0 | 0.00 | 0.00 | 0.00 | 50 | 1015.3 |
| 20260903000038 | 63 | 335 | 3.0 | 3.0 | 0.00 | 0.00 | 0.00 | 53 | 1015.1 |
| 20260902235531 | 63 | 278 | 1.0 | 3.0 | 0.00 | 0.00 | 0.00 | 46 | 1015.1 |
| 20260902235026 | 63 | 263 | 1.0 | 5.0 | 0.00 | 0.00 | 0.00 | 45 | 1015.1 |
| 20260902234526 | 63 | 258 | 0.0 | 4.0 | 0.00 | 0.00 | 0.00 | 45 | 1014.9 |
| 20260902234024 | 63 | 278 | 2.0 | 4.0 | 0.00 | 0.00 | 0.00 | 46 | 1014.9 |
| 20260902233520 | 63 | 247 | 2.0 | 8.0 | 0.00 | 0.00 | 0.00 | 46 | 1014.9 |
| 20260902233014 | 63 | 251 | 3.0 | 7.0 | 0.00 | 0.00 | 0.00 | 47 | 1014.7 |
| 20260902232514 | 64 | 251 | 1.0 | 7.0 | 0.00 | 0.00 | 0.00 | 46 | 1014.9 |
| 20260902232008 | 65 | 315 | 3.0 | 5.0 | 0.00 | 0.00 | 0.00 | 45 | 1014.7 |
| 20260902231503 | 66 | 319 | 2.0 | 10.0 | 0.00 | 0.00 | 0.00 | 42 | 1014.5 |
| 20260902230958 | 66 | 301 | 2.0 | 7.0 | 0.00 | 0.00 | 0.00 | 45 | 1014.4 |
| 20260902230452 | 67 | 237 | 2.0 | 7.0 | 0.00 | 0.00 | 0.00 | 44 | 1014.5 |
| 20260902225951 | 66 | 330 | 0.0 | 8.0 | 0.00 | 0.00 | 0.00 | 46 | 1014.3 |
| 20260902225446 | 66 | 299 | 4.0 | 7.0 | 0.00 | 0.00 | 0.00 | 43 | 1014.5 |
| 20260902224945 | 67 | 348 | 1.0 | 6.0 | 0.00 | 0.00 | 0.00 | 42 | 1014.4 |
| 20260902224445 | 66 | 292 | 3.0 | 6.0 | 0.00 | 0.00 | 0.00 | 42 | 1014.4 |
| 20260902223942 | 67 | 274 | 5.0 | 7.0 | 0.00 | 0.00 | 0.00 | 41 | 1014.3 |
| 20260902223437 | 68 | 198 | 1.0 | 7.0 | 0.00 | 0.00 | 0.00 | 39 | 1014.3 |
| 20260902222936 | 68 | 282 | 2.0 | 6.0 | 0.00 | 0.00 | 0.00 | 42 | 1014.3 |
| 20260902222434 | 68 | 213 | 4.0 | 8.0 | 0.00 | 0.00 | 0.00 | 40 | 1014.2 |
| 20260902221929 | 68 | 226 | 6.0 | 15.0 | 0.00 | 0.00 | 0.00 | 39 | 1014.2 |
| 20260902221428 | 69 | 219 | 11.0 | 13.0 | 0.00 | 0.00 | 0.00 | 38 | 1014.4 |
| 20260902220924 | 70 | 228 | 7.0 | 9.0 | 0.00 | 0.00 | 0.00 | 38 | 1014.2 |